Weather History for Havre, MT

Change the Weather History Date:

Sunday, February 23, 2014

  Actual Average Record
Temperature  
Mean Temperature 7 °F 24 °F  
Max Temperature 13 °F 36 °F 63 °F (1976)
Min Temperature 1 °F 13 °F -29 °F (1979)
Degree Days  
Heating Degree Days 58 41  
Month to date heating degree days 1177 997  
Since 1 July heating degree days 5955 5920  
Cooling Degree Days 0 0  
Month to date cooling degree days 0 0  
Year to date cooling degree days 0 0  
Moisture  
Dew Point 0 °F    
Average Humidity 74    
Maximum Humidity 87    
Minimum Humidity 61    
Precipitation  
Precipitation 0.06 in 0.01 in 0.38 in (2007)
Month to date precipitation 0.21 0.23  
Year to date precipitation 0.63 0.56  
Snow  
Snow 0.00 in 0.20 in 3.50 in (2007)
Month to date snowfall 3.2 4.8  
Since 1 July snowfall 36.4 26.9  
Snow Depth T in    
Sea Level Pressure  
Sea Level Pressure 30.37 in    
Wind  
Wind Speed 14 mph (ENE)    
Max Wind Speed 20 mph    
Max Gust Speed 24 mph    
Visibility 5 miles    
Events Snow    
T = Trace of Precipitation, MM = Missing Value Source: NWS Daily Summary

Daily Weather History Graph

Daily Weather History Graph

Search for Another Location

Airport:

Trip Planner

Search our weather history database for the weather conditions in past years. The results will help you decide how hot, cold, wet, or windy it might be!

Date:

Astronomy

Feb. 23, 2014 Rise Set
Actual Time 7:11 AM MST 5:53 PM MST
Civil Twilight 6:40 AM MST 6:25 PM MST
Nautical Twilight 6:03 AM MST 7:01 PM MST
Astronomical Twilight 5:27 AM MST 7:38 PM MST
Moon 2:28 AM MST (2/23) 11:44 AM MST (2/23)
Length of Visible Light 11h 45m
Length of Day
10h 41m
Last Quarter, 38% of the Moon is Illuminated
Feb 23
Last Quarter
Mar 1
New
Mar 8
First Quarter
Mar 16
Full
Mar 23
Last Quarter

Hourly Weather History & Observations

Time (MST) Temp. Windchill Dew Point Humidity Pressure Visibility Wind Dir Wind Speed Gust Speed Precip Events Conditions
12:53 AM 8.1 °F -8.4 °F 1.0 °F 73% 30.40 in 10.0 mi NE 13.8 mph - N/A   Overcast
1:53 AM 8.1 °F -7.0 °F 1.0 °F 73% 30.40 in 10.0 mi NE 11.5 mph - N/A   Overcast
2:53 AM 7.0 °F -9.1 °F -0.0 °F 73% 30.42 in 9.0 mi NE 12.7 mph - 0.00 in Snow Light Snow
3:05 AM 6.1 °F -10.2 °F -0.0 °F 76% 30.27 in 10.0 mi NE 12.7 mph - 0.00 in   Overcast
3:53 AM 5.0 °F -11.6 °F -0.9 °F 76% 30.44 in 10.0 mi NE 12.7 mph - 0.00 in   Overcast
4:06 AM 3.9 °F -13.7 °F -2.0 °F 76% 30.29 in 10.0 mi NE 13.8 mph - N/A   Overcast
4:53 AM 3.9 °F -13.7 °F -2.9 °F 73% 30.46 in 10.0 mi NE 13.8 mph - N/A   Overcast
5:31 AM 3.9 °F -13.0 °F -2.0 °F 76% 30.31 in 3.0 mi NE 12.7 mph - 0.00 in Snow Light Snow
5:48 AM 3.2 °F -12.2 °F -2.2 °F 78% 30.31 in 2.5 mi NE 10.4 mph - 0.00 in Snow Light Snow
5:53 AM 3.0 °F -12.5 °F -2.0 °F 80% 30.48 in 2.5 mi NE 10.4 mph - 0.00 in Snow Light Snow
6:23 AM 3.0 °F -14.1 °F -2.0 °F 80% 30.31 in 3.0 mi NE 12.7 mph - 0.00 in Snow Light Snow
6:53 AM 1.9 °F -14.7 °F -2.9 °F 80% 30.49 in 7.0 mi NE 11.5 mph - 0.00 in Snow Light Snow
7:53 AM 1.9 °F -14.7 °F -4.0 °F 76% 30.50 in 7.0 mi NE 11.5 mph - 0.00 in   Overcast
8:53 AM 3.9 °F -14.3 °F -2.9 °F 73% 30.51 in 10.0 mi NE 15.0 mph - N/A   Mostly Cloudy
9:08 AM 3.9 °F -15.0 °F -2.9 °F 73% 30.35 in 10.0 mi ENE 16.1 mph - N/A   Mostly Cloudy
9:53 AM 6.1 °F -11.6 °F -2.0 °F 69% 30.52 in 10.0 mi ENE 15.0 mph - N/A   Overcast
10:12 AM 6.1 °F -10.9 °F -0.9 °F 73% 30.35 in 3.0 mi ENE 13.8 mph - 0.00 in Snow Light Snow
10:19 AM 6.1 °F -10.9 °F -0.9 °F 73% 30.35 in 1.8 mi ENE 13.8 mph - 0.00 in Snow Light Snow
10:40 AM 7.0 °F -10.4 °F -0.9 °F 70% 30.35 in 2.5 mi ENE 15.0 mph - 0.00 in Snow Light Snow
10:48 AM 6.8 °F -10.7 °F -0.4 °F 72% 30.35 in 3.0 mi East 15.0 mph - 0.00 in Snow Light Snow
10:49 AM 7.0 °F -9.8 °F -0.0 °F 73% 30.51 in 3.0 mi ENE 13.8 mph - 0.00 in Snow Light Snow
11:10 AM 8.1 °F -9.0 °F -0.0 °F 70% 30.34 in 5.0 mi East 15.0 mph - 0.00 in Snow Light Snow
11:20 AM 8.1 °F -9.6 °F -0.0 °F 70% 30.34 in 6.0 mi ENE 16.1 mph - 0.00 in Snow Light Snow
11:53 AM 9.0 °F -7.3 °F -0.0 °F 67% 30.50 in 10.0 mi East 13.8 mph - 0.00 in   Mostly Cloudy
12:00 PM 9.0 °F -5.9 °F -0.9 °F 64% 30.33 in 10.0 mi East 11.5 mph 19.6 mph N/A   Scattered Clouds
12:53 PM 10.9 °F -5.4 °F 1.0 °F 64% 30.48 in 10.0 mi ENE 15.0 mph 19.6 mph N/A   Mostly Cloudy
1:53 PM 10.9 °F -4.1 °F 1.0 °F 64% 30.45 in 9.0 mi ENE 12.7 mph - N/A   Overcast
2:53 PM 12.0 °F -3.4 °F 1.9 °F 64% 30.43 in 5.0 mi East 13.8 mph - N/A   Haze
3:17 PM 12.0 °F -3.4 °F 1.9 °F 64% 30.26 in 7.0 mi East 13.8 mph - N/A   Overcast
3:53 PM 12.0 °F -3.4 °F 1.9 °F 64% 30.42 in 10.0 mi East 13.8 mph - N/A   Mostly Cloudy
4:53 PM 10.9 °F -4.1 °F 1.0 °F 64% 30.42 in 10.0 mi ENE 12.7 mph - N/A   Overcast
5:44 PM 10.9 °F -4.7 °F 3.0 °F 70% 30.25 in 2.5 mi ENE 13.8 mph - 0.00 in Snow Light Snow
5:53 PM 10.0 °F -6.5 °F 3.0 °F 73% 30.43 in 1.8 mi ENE 15.0 mph - 0.00 in Snow Light Snow
6:09 PM 10.0 °F -6.5 °F 3.9 °F 76% 30.25 in 2.5 mi ENE 15.0 mph - 0.01 in Snow Light Snow
6:24 PM 10.0 °F -7.1 °F 3.9 °F 76% 30.24 in 3.0 mi ENE 16.1 mph - 0.01 in Snow Light Snow
6:53 PM 10.0 °F -5.9 °F 5.0 °F 80% 30.42 in 3.0 mi ENE 13.8 mph - 0.01 in Snow Light Snow
7:19 PM 9.0 °F -8.5 °F 5.0 °F 84% 30.24 in 2.5 mi ENE 16.1 mph - 0.00 in Snow Light Snow
7:53 PM 8.1 °F -10.2 °F 3.0 °F 80% 30.42 in 2.5 mi ENE 17.3 mph - 0.01 in Snow Light Snow
8:10 PM 7.0 °F -11.6 °F 1.9 °F 80% 30.24 in 2.5 mi ENE 17.3 mph - 0.00 in Snow Light Snow
8:29 PM 7.0 °F -11.6 °F 1.9 °F 80% 30.25 in 2.5 mi East 17.3 mph - 0.00 in Snow Light Snow
8:39 PM 7.0 °F -9.8 °F 1.9 °F 80% 30.25 in 2.0 mi ENE 13.8 mph - 0.00 in Snow Light Snow
8:53 PM 7.0 °F -11.6 °F 1.0 °F 77% 30.42 in 1.8 mi ENE 17.3 mph - 0.00 in Snow Light Snow
9:22 PM 6.1 °F -11.6 °F 1.0 °F 80% 30.25 in 2.0 mi ENE 15.0 mph - 0.01 in Snow Light Snow
9:35 PM 6.1 °F -12.2 °F 1.0 °F 80% 30.24 in 2.5 mi ENE 16.1 mph - 0.01 in Snow Light Snow
9:53 PM 6.1 °F -12.2 °F 1.0 °F 80% 30.43 in 2.5 mi ENE 16.1 mph - 0.01 in Snow Light Snow
10:13 PM 6.1 °F -11.6 °F -0.0 °F 76% 30.25 in 2.0 mi ENE 15.0 mph - 0.01 in Snow Light Snow
10:24 PM 6.1 °F -12.2 °F -0.0 °F 76% 30.25 in 2.5 mi ENE 16.1 mph - 0.01 in Snow Light Snow
10:53 PM 5.0 °F -14.2 °F -0.0 °F 80% 30.42 in 3.0 mi ENE 17.3 mph - 0.02 in Snow Light Snow
11:09 PM 6.1 °F -10.9 °F 1.0 °F 80% 30.25 in 2.5 mi ENE 13.8 mph - 0.00 in Snow Light Snow
11:30 PM 5.0 °F -12.3 °F -0.0 °F 80% 30.25 in 2.0 mi ENE 13.8 mph - 0.00 in Snow Light Snow
11:51 PM 5.0 °F -13.0 °F -0.4 °F 78% 30.25 in 1.8 mi NE 15.0 mph - 0.00 in Snow Light Snow
11:53 PM 5.0 °F -11.6 °F -0.0 °F 80% 30.43 in 1.8 mi NE 12.7 mph - 0.01 in Snow Light Snow